• In Portugal
  • List of Countries
  • For 7 days
  • Water Temperature
  • Satellite Maps
  • Weather Map
  • Weather Widgets
  • user-avatar
    Login

    Hourly Weather Kemer

    Today, 20 July, Friday

    Time Temperature Precipitation Wind Pressure Humidity
    00:00 +28°C° 0 mm 1 mps 742 mmHg 67%
    01:00 +28°C° 0 mm 1 mps 742 mmHg 66%
    02:00 +28°C° 0 mm 1 mps 742 mmHg 65%
    03:00 +28°C° 0 mm 1 mps 742 mmHg 65%
    04:00 +27°C° 0 mm 1 mps 742 mmHg 64%
    05:00 +27°C° 0 mm 1 mps 742 mmHg 64%
    06:00 +28°C° 0 mm 1 mps 742 mmHg 60%
    07:00 +30°C° 0 mm 1 mps 742 mmHg 57%
    08:00 +31°C° 0 mm 1 mps 742 mmHg 54%
    09:00 +32°C° 0.1 mm 1 mps 742 mmHg 52%
    10:00 +33°C° 0.1 mm 1 mps 742 mmHg 50%
    11:00 +34°C° 0.1 mm 2 mps 742 mmHg 48%
    12:00 +34°C° 0.4 mm 2 mps 742 mmHg 49%
    13:00 +34°C° 0.4 mm 3 mps 742 mmHg 50%
    14:00 +35°C° 0 mm 3 mps 742 mmHg 48%
    15:00 +34°C° 0.2 mm 3 mps 743 mmHg 48%
    16:00 +34°C° 0.2 mm 3 mps 743 mmHg 49%
    17:00 +34°C° 0.2 mm 4 mps 743 mmHg 50%
    18:00 +33°C° 0.1 mm 3 mps 743 mmHg 55%
    19:00 +31°C° 0.1 mm 3 mps 743 mmHg 60%
    20:00 +30°C° 0.1 mm 2 mps 743 mmHg 65%
    21:00 +30°C° 0 mm 2 mps 743 mmHg 64%
    22:00 +29°C° 0 mm 2 mps 743 mmHg 63%
    23:00 +29°C° 0 mm 2 mps 743 mmHg 63%

    Tomorrow, 21 July, Saturday

    Time Temperature Precipitation Wind Pressure Humidity
    00:00 +29°C° 0 mm 2 mps 743 mmHg 62%
    01:00 +29°C° 0 mm 2 mps 743 mmHg 61%
    02:00 +29°C° 0 mm 2 mps 743 mmHg 60%
    03:00 +28°C° 0 mm 1 mps 743 mmHg 59%
    04:00 +28°C° 0 mm 1 mps 743 mmHg 59%
    05:00 +28°C° 0 mm 1 mps 743 mmHg 59%
    06:00 +30°C° 0 mm 1 mps 743 mmHg 55%
    07:00 +31°C° 0 mm 1 mps 743 mmHg 51%
    08:00 +33°C° 0 mm 1 mps 743 mmHg 47%
    09:00 +34°C° 0 mm 1 mps 743 mmHg 44%
    10:00 +36°C° 0 mm 2 mps 743 mmHg 42%
    11:00 +37°C° 0 mm 2 mps 743 mmHg 39%
    12:00 +37°C° 0 mm 3 mps 743 mmHg 39%
    13:00 +37°C° 0 mm 3 mps 743 mmHg 39%
    14:00 +37°C° 0 mm 4 mps 743 mmHg 39%
    15:00 +37°C° 0 mm 4 mps 743 mmHg 40%
    16:00 +37°C° 0 mm 4 mps 743 mmHg 40%
    17:00 +36°C° 0 mm 5 mps 743 mmHg 40%
    18:00 +35°C° 0 mm 4 mps 743 mmHg 46%
    19:00 +34°C° 0 mm 4 mps 743 mmHg 51%
    20:00 +31°C° 0 mm 3 mps 743 mmHg 56%
    21:00 +31°C° 0 mm 3 mps 743 mmHg 54%
    22:00 +31°C° 0 mm 3 mps 744 mmHg 51%
    23:00 +31°C° 0 mm 3 mps 744 mmHg 49%

    Day after tomorrow, 22 July, Sunday

    Time Temperature Precipitation Wind Pressure Humidity
    00:00 +31°C° 0 mm 3 mps 744 mmHg 47%
    01:00 +30°C° 0 mm 2 mps 744 mmHg 46%
    02:00 +30°C° 0 mm 2 mps 743 mmHg 44%
    03:00 +30°C° 0 mm 2 mps 743 mmHg 44%
    04:00 +30°C° 0 mm 2 mps 743 mmHg 45%
    05:00 +30°C° 0 mm 2 mps 743 mmHg 45%
    06:00 +31°C° 0 mm 2 mps 743 mmHg 43%
    07:00 +34°C° 0 mm 2 mps 743 mmHg 40%
    08:00 +36°C° 0 mm 2 mps 743 mmHg 38%
    09:00 +37°C° 0 mm 2 mps 743 mmHg 36%
    10:00 +37°C° 0 mm 3 mps 743 mmHg 34%
    11:00 +38°C° 0 mm 3 mps 743 mmHg 32%
    12:00 +39°C° 0 mm 3 mps 743 mmHg 31%
    13:00 +40°C° 0 mm 4 mps 742 mmHg 30%
    14:00 +41°C° 0 mm 5 mps 742 mmHg 29%
    15:00 +40°C° 0 mm 5 mps 742 mmHg 29%
    16:00 +40°C° 0 mm 5 mps 742 mmHg 30%
    17:00 +40°C° 0 mm 5 mps 741 mmHg 31%
    18:00 +37°C° 0 mm 5 mps 742 mmHg 32%
    19:00 +36°C° 0 mm 5 mps 742 mmHg 34%
    20:00 +35°C° 0 mm 4 mps 742 mmHg 36%
    21:00 +34°C° 0 mm 4 mps 743 mmHg 36%
    22:00 +34°C° 0 mm 4 mps 743 mmHg 36%
    23:00 +33°C° 0 mm 4 mps 743 mmHg 36%

    23 July, Monday

    Time Temperature Precipitation Wind Pressure Humidity
    00:00 +33°C° 0 mm 4 mps 743 mmHg 38%
    01:00 +32°C° 0 mm 4 mps 743 mmHg 40%
    02:00 +32°C° 0 mm 5 mps 743 mmHg 42%
    03:00 +30°C° 0 mm 5 mps 743 mmHg 44%
    04:00 +30°C° 0 mm 5 mps 742 mmHg 46%
    05:00 +29°C° 0 mm 5 mps 742 mmHg 48%
    06:00 +32°C° 0 mm 4 mps 743 mmHg 42%
    07:00 +34°C° 0 mm 4 mps 743 mmHg 37%
    08:00 +36°C° 0 mm 4 mps 743 mmHg 31%
    09:00 +37°C° 0 mm 3 mps 743 mmHg 29%
    10:00 +38°C° 0 mm 3 mps 743 mmHg 27%
    11:00 +39°C° 0 mm 3 mps 743 mmHg 25%
    12:00 +39°C° 0 mm 3 mps 742 mmHg 25%
    13:00 +40°C° 0 mm 4 mps 742 mmHg 25%
    14:00 +41°C° 0 mm 4 mps 742 mmHg 25%
    15:00 +40°C° 0 mm 4 mps 741 mmHg 26%
    16:00 +40°C° 0 mm 5 mps 741 mmHg 27%
    17:00 +40°C° 0 mm 5 mps 741 mmHg 28%
    18:00 +37°C° 0 mm 5 mps 741 mmHg 31%
    19:00 +36°C° 0 mm 4 mps 742 mmHg 35%
    20:00 +34°C° 0 mm 4 mps 742 mmHg 38%
    21:00 +34°C° 0 mm 4 mps 742 mmHg 36%
    22:00 +34°C° 0 mm 3 mps 742 mmHg 34%
    23:00 +34°C° 0 mm 3 mps 742 mmHg 32%

    24 July, Tuesday

    Time Temperature Precipitation Wind Pressure Humidity
    00:00 +33°C° 0 mm 3 mps 742 mmHg 34%
    01:00 +32°C° 0 mm 2 mps 741 mmHg 35%
    02:00 +31°C° 0 mm 2 mps 741 mmHg 37%
    03:00 +31°C° 0 mm 2 mps 741 mmHg 38%
    04:00 +30°C° 0 mm 2 mps 741 mmHg 39%
    05:00 +30°C° 0 mm 2 mps 741 mmHg 40%
    06:00 +32°C° 0 mm 2 mps 741 mmHg 37%
    07:00 +35°C° 0 mm 2 mps 741 mmHg 34%
    08:00 +36°C° 0 mm 1 mps 742 mmHg 31%
    09:00 +38°C° 0 mm 2 mps 742 mmHg 31%
    10:00 +38°C° 0 mm 2 mps 741 mmHg 30%
    11:00 +39°C° 0 mm 3 mps 741 mmHg 30%
    12:00 +39°C° 0 mm 3 mps 741 mmHg 31%
    13:00 +40°C° 0 mm 4 mps 741 mmHg 31%
    14:00 +40°C° 0 mm 4 mps 741 mmHg 32%
    15:00 +40°C° 0 mm 5 mps 741 mmHg 34%
    16:00 +39°C° 0 mm 5 mps 741 mmHg 36%
    17:00 +37°C° 0 mm 5 mps 741 mmHg 38%
    18:00 +35°C° 0 mm 5 mps 741 mmHg 48%
    19:00 +33°C° 0 mm 4 mps 741 mmHg 57%
    20:00 +30°C° 0 mm 4 mps 742 mmHg 67%
    21:00 +30°C° 0 mm 3 mps 742 mmHg 70%
    22:00 +29°C° 0 mm 3 mps 742 mmHg 72%
    23:00 +29°C° 0 mm 3 mps 742 mmHg 75%

    25 July, Wednesday

    Time Temperature Precipitation Wind Pressure Humidity
    00:00 +28°C° 0 mm 3 mps 742 mmHg 76%
    01:00 +28°C° 0 mm 2 mps 742 mmHg 76%
    02:00 +27°C° 0 mm 2 mps 741 mmHg 77%
    03:00 +27°C° 0 mm 2 mps 742 mmHg 78%
    04:00 +27°C° 0 mm 2 mps 742 mmHg 79%
    05:00 +27°C° 0 mm 2 mps 742 mmHg 80%
    06:00 +28°C° 0 mm 2 mps 742 mmHg 75%
    07:00 +29°C° 0 mm 2 mps 742 mmHg 69%
    08:00 +31°C° 0 mm 2 mps 742 mmHg 63%
    09:00 +31°C° 0 mm 2 mps 742 mmHg 59%
    10:00 +33°C° 0 mm 3 mps 742 mmHg 54%
    11:00 +34°C° 0 mm 3 mps 742 mmHg 50%
    12:00 +35°C° 0 mm 4 mps 742 mmHg 49%
    13:00 +35°C° 0 mm 4 mps 742 mmHg 48%
    14:00 +35°C° 0 mm 5 mps 742 mmHg 47%
    15:00 +35°C° 0.1 mm 5 mps 742 mmHg 49%
    16:00 +34°C° 0.1 mm 4 mps 742 mmHg 51%
    17:00 +34°C° 0.1 mm 4 mps 742 mmHg 53%
    18:00 +33°C° 0.1 mm 4 mps 742 mmHg 60%
    19:00 +30°C° 0.1 mm 3 mps 742 mmHg 67%
    20:00 +29°C° 0.1 mm 3 mps 742 mmHg 74%
    21:00 +29°C° 0 mm 2 mps 743 mmHg 76%
    22:00 +28°C° 0 mm 2 mps 743 mmHg 78%
    23:00 +28°C° 0 mm 2 mps 743 mmHg 79%
    Show more